Waarnemingen

Advertentie
Mijn weer
Sete, Frankrijk (7641): temperatuur & dauwpunt: 11.06.2019 04:00:00 - 17.06.2019 04:00:00 (CEST)Sete, Frankrijk (7641): windsnelheid & windstoten: 11.06.2019 04:00:00 - 17.06.2019 04:00:00 (CEST)Sete, Frankrijk (7641): windrichting: 11.06.2019 04:00:00 - 17.06.2019 04:00:00 (CEST)Sete, Frankrijk (7641): luchtdruk: 11.06.2019 04:00:00 - 17.06.2019 04:00:00 (CEST)Sete, Frankrijk (7641): zicht: 11.06.2019 04:00:00 - 17.06.2019 04:00:00 (CEST)Sete, Frankrijk (7641): neerslag: 11.06.2019 04:00:00 - 17.06.2019 04:00:00 (CEST)
Datum & Tijd tt [°C] td [°C] ff [km/u] ff [kn] fx [km/u] fx [kn] dd ppp [hPa] vv [km] rr [mm]
17.06.2019 04:00:00 21,7 11,4 18 10 28 15 WNW 1015,9 - 0,0
17.06.2019 03:00:00 22,5 11,6 16 9 28 15 NW 1015,9 - 0,0
17.06.2019 02:00:00 21,6 10,1 14 8 27 14 NNW 1015,9 - 0,0
17.06.2019 01:00:00 22,0 11,4 13 7 23 13 N 1016,1 - 0,0
17.06.2019 00:00:00 23,1 11,5 17 9 28 15 NNO 1016,4 - 0,0
16.06.2019 23:00:00 22,8 11,8 12 6 22 12 N 1016,1 - 0,0
16.06.2019 22:00:00 20,6 14,3 6 3 23 12 N 1015,9 - 0,0
16.06.2019 21:00:00 20,4 15,2 13 7 19 10 ZZW 1015,6 - 0,0
16.06.2019 20:00:00 21,1 14,7 11 6 27 14 ZZW 1015,5 25 0,0
16.06.2019 19:00:00 24,6 14,1 10 5 32 17 ZZW 1015,4 - 0,0
16.06.2019 18:00:00 24,1 13,3 16 9 34 19 ZZW 1015,5 - 0,0
16.06.2019 17:00:00 24,2 13,4 19 10 32 18 ZZW 1016,0 - 0,0
16.06.2019 16:00:00 23,5 13,4 13 7 27 15 ZZW 1016,6 - 0,0
16.06.2019 15:00:00 23,8 13,3 14 8 28 15 ZZW 1017,0 - 0,0
16.06.2019 14:00:00 23,1 12,7 16 9 28 15 ZZW 1017,6 20 0,0
16.06.2019 13:00:00 22,7 12,0 15 8 31 17 ZZW 1018,5 - 0,0
16.06.2019 12:00:00 24,1 8,1 16 9 31 17 ZZW 1018,7 - 0,0
16.06.2019 11:00:00 24,5 8,0 6 4 21 11 NNW 1019,2 20 0,0
16.06.2019 10:00:00 22,9 8,6 8 5 25 14 N 1019,6 - 0,0
16.06.2019 09:00:00 19,9 9,2 16 9 38 21 NW 1019,8 - 0,0
16.06.2019 08:00:00 18,1 9,7 22 12 39 21 NW 1019,7 - 0,0
16.06.2019 07:00:00 17,0 10,1 25 13 42 23 NW 1019,4 - 0,0
16.06.2019 06:00:00 16,2 10,5 24 13 42 23 NNW 1019,4 - 0,0
16.06.2019 05:00:00 16,3 10,6 22 12 39 21 NW 1019,4 20 0,0
16.06.2019 04:00:00 16,7 10,8 24 13 44 24 NW 1019,7 - 0,0
16.06.2019 03:00:00 16,9 11,0 18 10 39 21 NW 1019,9 - 0,0
16.06.2019 02:00:00 17,4 11,0 21 11 41 22 NW 1020,2 - 0,0
16.06.2019 01:00:00 17,8 11,1 16 8 39 21 NW 1020,2 - 0,0
16.06.2019 00:00:00 18,4 10,7 20 11 43 23 NW 1019,9 - 0,0
15.06.2019 23:00:00 19,1 10,4 18 10 47 25 NW 1019,4 - 0,0
15.06.2019 22:00:00 19,3 10,8 21 11 48 26 NW 1018,6 - 0,0
15.06.2019 21:00:00 20,2 11,1 22 12 45 24 NW 1017,6 - 0,0
15.06.2019 20:00:00 21,8 12,4 16 9 35 19 WNW 1017,4 12 0,0
15.06.2019 19:00:00 23,4 12,7 16 9 42 23 NW 1017,0 - 0,0
15.06.2019 18:00:00 24,2 13,4 18 10 42 23 NW 1016,5 - 0,0
15.06.2019 17:00:00 25,2 13,4 18 10 37 20 NNW 1016,6 12 0,0
15.06.2019 16:00:00 26,2 14,3 14 8 32 18 NNW 1016,2 - 0,0
15.06.2019 15:00:00 24,0 15,2 9 5 30 16 W 1016,3 - 0,0
15.06.2019 14:00:00 24,7 15,1 13 7 31 17 ZZW 1016,3 12 -
15.06.2019 13:00:00 23,4 15,4 4 2 13 7 ZO 1016,5 - 0,0
15.06.2019 12:00:00 22,5 16,5 5 3 12 7 ZZO 1016,5 - 0,0
15.06.2019 11:00:00 20,0 16,6 9 5 17 9 N 1016,7 - 0,0
15.06.2019 10:00:00 19,9 15,3 10 6 18 10 N 1016,2 - 0,0
15.06.2019 09:00:00 19,4 14,0 10 5 25 13 NW 1015,7 - 0,0
15.06.2019 08:00:00 18,3 13,6 19 10 33 18 NW 1015,0 10 0,0
15.06.2019 07:00:00 17,3 13,6 26 14 33 18 WNW 1014,5 - 0,0
15.06.2019 06:00:00 16,5 14,0 19 10 29 16 WNW 1014,4 - 0,0
15.06.2019 05:00:00 16,8 14,3 22 12 29 16 WNW 1013,9 10 0,0
15.06.2019 04:00:00 18,1 14,2 18 10 29 16 WNW 1013,9 - 0,0
15.06.2019 03:00:00 18,3 14,2 19 11 29 16 WNW 1013,3 - 0,0
15.06.2019 02:00:00 18,6 14,9 19 10 32 17 WNW 1013,5 - 0,0
15.06.2019 01:00:00 19,0 15,1 14 8 27 14 W 1013,2 - 0,2
15.06.2019 00:00:00 20,2 17,2 10 6 29 16 N 1012,6 - 0,0
14.06.2019 23:00:00 19,8 14,2 17 9 26 14 NW 1012,0 - 0,0
14.06.2019 22:00:00 20,1 18,4 9 5 26 14 NNW 1011,1 4,0 0,0
14.06.2019 21:00:00 19,7 18,2 14 8 25 14 N 1009,8 - 0,0
14.06.2019 20:00:00 19,9 17,5 4 2 19 11 O 1009,3 - 0,8
14.06.2019 19:00:00 22,4 16,0 6 3 36 19 O 1009,2 - 0,0
14.06.2019 18:00:00 23,5 15,0 17 9 34 18 ONO 1007,5 - 0,0
14.06.2019 17:00:00 24,9 14,1 9 5 29 16 O 1008,2 15 0,0
14.06.2019 16:00:00 25,5 13,7 6 4 21 11 ZO 1008,9 - 0,0
14.06.2019 15:00:00 26,0 12,8 15 8 52 28 NNO 1007,9 - 0,0
14.06.2019 14:00:00 21,8 12,9 9 5 24 13 Z 1009,8 - 0,0
14.06.2019 13:00:00 22,2 13,8 4 2 15 8 NNO 1010,0 - 0,0
14.06.2019 12:00:00 21,9 12,7 5 3 37 20 ZZO 1010,7 - 0,0
14.06.2019 11:00:00 19,8 10,2 22 12 46 25 NNW 1010,7 18 0,0
14.06.2019 10:00:00 17,1 11,4 27 14 48 26 NNW 1011,4 15 0,2
14.06.2019 09:00:00 18,2 7,6 18 10 34 19 N 1011,5 - 0,0
14.06.2019 08:00:00 18,0 8,5 27 15 40 21 NNW 1011,3 15 0,0
14.06.2019 07:00:00 18,0 8,3 27 15 37 20 NNW 1011,4 - 0,0
14.06.2019 06:00:00 18,3 9,4 9 5 24 13 WNW 1013,4 - 0,0
14.06.2019 05:00:00 17,1 9,8 20 11 30 16 NNW 1012,3 15 0,2
14.06.2019 04:00:00 17,6 10,7 11 6 17 9 N 1013,1 - 0,0
14.06.2019 03:00:00 17,4 11,0 11 6 16 9 N 1013,4 - 0,0
14.06.2019 02:00:00 17,7 11,5 9 5 14 8 NNO 1014,3 - 0,0
14.06.2019 01:00:00 17,3 11,1 11 6 17 9 N 1014,5 - 0,0
14.06.2019 00:00:00 17,5 11,5 9 5 16 9 NO 1014,7 - 0,0
13.06.2019 23:00:00 17,6 12,5 7 4 17 9 NO 1014,4 - 0,0
13.06.2019 22:00:00 17,5 12,6 6 3 14 8 ONO 1014,3 - 0,0
13.06.2019 21:00:00 17,4 12,9 4 2 11 6 O 1014,2 - 0,0
13.06.2019 20:00:00 18,1 13,2 4 2 10 5 O 1014,1 20 0,0
13.06.2019 19:00:00 18,9 13,5 5 3 19 11 ZO 1014,3 - 0,0
13.06.2019 18:00:00 19,6 14,0 15 8 23 12 Z 1014,5 - 0,0
13.06.2019 17:00:00 20,0 14,6 9 5 19 10 ZO 1014,7 20 0,0
13.06.2019 16:00:00 21,0 14,9 11 6 24 13 ZO 1014,9 - 0,0
13.06.2019 15:00:00 20,4 15,0 9 5 21 11 ZO 1015,3 - 0,0
13.06.2019 14:00:00 19,2 15,5 12 6 25 13 OZO 1015,5 - 0,0
13.06.2019 13:00:00 18,6 14,5 12 6 23 12 OZO 1015,7 - 0,0
13.06.2019 12:00:00 18,5 13,6 12 6 22 12 O 1016,0 - 0,0
13.06.2019 11:00:00 19,8 12,1 11 6 20 11 O 1015,8 - 0,0
13.06.2019 10:00:00 18,1 10,0 10 5 19 10 ONO 1015,7 - 0,0
13.06.2019 09:00:00 16,8 8,7 11 6 25 14 ONO 1015,7 - 0,0
13.06.2019 08:00:00 15,6 7,9 17 9 29 15 NNO 1015,6 20 0,0
13.06.2019 07:00:00 15,4 8,4 14 8 22 12 NNO 1015,2 - 0,0
13.06.2019 06:00:00 14,2 11,7 10 5 15 8 N 1014,9 - 0,0
13.06.2019 05:00:00 14,5 13,4 11 6 16 9 N 1014,6 - 0,0
13.06.2019 04:00:00 14,8 13,5 5 3 12 6 NW 1014,6 - 0,0
13.06.2019 03:00:00 15,1 13,6 5 3 12 7 WNW 1014,9 - 0,0
13.06.2019 02:00:00 15,4 13,8 5 3 21 11 W 1015,2 - 0,0
13.06.2019 01:00:00 15,5 13,7 14 8 23 12 WZW 1015,6 - 0,0
13.06.2019 00:00:00 15,6 13,4 9 5 25 14 WZW 1015,7 - 0,0
12.06.2019 23:00:00 15,9 13,2 16 9 25 14 ZW 1015,4 - 0,0
12.06.2019 22:00:00 16,0 12,4 14 8 38 20 ZW 1015,0 - 0,0
12.06.2019 21:00:00 16,3 12,3 21 11 38 21 ZW 1014,4 - 0,0
12.06.2019 20:00:00 16,9 11,4 22 12 40 21 ZW 1014,0 20 0,0
12.06.2019 19:00:00 17,8 11,4 26 14 41 22 ZZW 1013,7 - 0,0
12.06.2019 18:00:00 18,4 10,7 22 12 41 22 ZZW 1013,7 - 0,0
12.06.2019 17:00:00 18,9 11,5 23 12 43 23 ZZW 1013,9 20 0,0
12.06.2019 16:00:00 19,4 10,4 24 13 39 21 ZZW 1014,0 - 0,0
12.06.2019 15:00:00 19,3 10,3 24 13 40 22 Z 1014,0 - 0,0
12.06.2019 14:00:00 18,6 9,9 25 14 42 23 ZZW 1014,1 - 0,0
12.06.2019 13:00:00 18,3 9,6 19 10 36 20 ZZW 1014,4 - 0,0
12.06.2019 12:00:00 17,9 9,0 22 12 36 19 ZZW 1014,5 - 0,0
12.06.2019 11:00:00 18,2 9,0 11 6 27 14 ZZW 1014,5 20 0,0
12.06.2019 10:00:00 17,5 7,0 9 5 29 16 W 1014,8 - 0,0
12.06.2019 09:00:00 16,4 6,8 13 7 31 17 NW 1014,4 - 0,0
12.06.2019 08:00:00 15,1 6,9 9 5 27 15 WNW 1014,3 20 0,0
12.06.2019 07:00:00 13,7 6,5 14 7 29 16 NW 1013,8 - 0,0
12.06.2019 06:00:00 12,7 6,3 18 10 34 18 NW 1013,4 - 0,0
12.06.2019 05:00:00 12,5 6,7 16 9 30 16 NW 1013,3 20 0,0
12.06.2019 04:00:00 12,6 7,5 10 5 21 12 WNW 1013,1 - 0,0
12.06.2019 03:00:00 12,7 7,8 11 6 26 14 WNW 1013,3 - 0,0
12.06.2019 02:00:00 13,3 7,5 14 8 30 16 WNW 1013,2 - 0,0
12.06.2019 01:00:00 13,9 8,3 13 7 27 15 WNW 1013,2 - 0,0
12.06.2019 00:00:00 14,3 8,7 13 7 29 16 W 1013,3 - 0,0
11.06.2019 23:00:00 14,5 8,0 15 8 36 20 W 1012,9 - 0,0
11.06.2019 22:00:00 15,3 9,6 10 5 29 16 WNW 1012,8 - 0,0
11.06.2019 21:00:00 15,9 10,0 8 4 24 13 W 1012,5 - 0,0
11.06.2019 20:00:00 15,9 11,3 8 5 23 12 W 1012,2 15 0,0
11.06.2019 19:00:00 15,4 12,3 10 6 30 16 ZW 1012,0 - 0,2
11.06.2019 18:00:00 14,6 12,3 16 9 29 16 WZW 1012,5 - 0,4
11.06.2019 17:00:00 14,7 11,8 16 8 32 18 ZW 1012,4 15 0,2
11.06.2019 16:00:00 15,8 11,8 16 9 26 14 ZZW 1012,5 - 0,0
11.06.2019 15:00:00 16,2 9,1 10 5 28 15 NW 1012,5 - 0,0
11.06.2019 14:00:00 15,7 9,4 12 6 33 18 NW 1012,7 - 0,0
11.06.2019 13:00:00 15,3 10,1 14 8 29 15 NW 1012,5 - 0,2
11.06.2019 12:00:00 15,3 9,9 12 7 28 15 WNW 1012,4 - 0,2
11.06.2019 11:00:00 15,5 10,9 11 6 24 13 WNW 1011,8 15 0,2
11.06.2019 10:00:00 15,9 10,6 9 5 22 12 NW 1011,6 - 0,0
11.06.2019 09:00:00 16,0 9,4 11 6 27 15 NW 1011,7 - 0,0
11.06.2019 08:00:00 16,0 9,6 14 8 30 16 NW 1011,3 - 0,0
11.06.2019 07:00:00 15,8 9,2 19 10 30 16 NW 1010,8 - 0,0
11.06.2019 06:00:00 16,0 9,2 17 9 31 17 NW 1010,8 - 0,0
11.06.2019 05:00:00 16,1 10,0 16 9 30 16 WNW 1011,0 - 0,0
11.06.2019 04:00:00 16,8 9,2 14 8 29 16 WNW 1011,6 - 0,0

tt = temperatuur
td = dauwpunt
ff = windsnelheid
fx = windstoten
dd = windrichting
ppp = luchtdruk
vv = zicht
rr = neerslag

Weerstations in de omgeving